Regional Weather Roundup
Issued by NWS

Home | Current Version | Previous Version | Graphics & Text | Print | Product List | Glossary On
Versions: 1 2 3 4 5 6 7 8 9 10 11 12 13 14 15 16 17 18 19 20 21 22 23 24 25 26 27 28 29 30 31 32 33 34 35 36 37 38 39 40 41 42 43 44 45 46 47 48 49 50
000
ASUS43 KOAX 050510
RWRNE

WEATHER ROUNDUP FOR NEBRASKA
NATIONAL WEATHER SERVICE OMAHA NE
1200 AM CDT SUN JUL 05 2015

NOTES: SATELLITE DATA IS BEING USED TO AUGMENT CLOUD COVER ABOVE
       12000 FEET.
       "FAIR" INDICATES FEW OR NO CLOUDS BELOW 12,000 FEET WITH NO
       SIGNIFICANT WEATHER AND/OR OBSTRUCTIONS TO VISIBILITY.

  * THESE STATIONS DO NOT REPORT WEATHER SUCH AS RAIN...SNOW OR FOG.

NEZ001>004-019>022-054>056-050600-
NEBRASKA PANHANDLE

CITY           SKY/WX    TMP DP  RH WIND       PRES   REMARKS
SCOTTSBLUFF    MOCLDY    72  62  71 E6        29.88S
ALLIANCE       CLEAR     67  61  81 SE9       29.88F
CHADRON        PTCLDY    68  64  87 CALM      29.84S
KIMBALL          N/A    N/A N/A N/A MISG        N/A
SIDNEY         CLOUDY    77  59  53 S12       29.93R
$$

NEZ057>060-069>072-079>082-050600-
SOUTHWEST NEBRASKA

CITY           SKY/WX    TMP DP  RH WIND       PRES   REMARKS
NORTH PLATTE   CLEAR     77  64  64 SE10      29.89S
IMPERIAL       MOCLDY    81  62  52 SE14      29.90R
LEXINGTON      MOCLDY    76  65  69 S14       29.90S
MCCOOK         PTCLDY    78  62  57 SE9       29.89R
OGALLALA       MOCLDY    78  62  59 S9        29.88S
$$

NEZ005>010-023>029-035>040-094-050600-
NORTH CENTRAL NEBRASKA

CITY           SKY/WX    TMP DP  RH WIND       PRES   REMARKS
VALENTINE      CLOUDY    80  64  58 SE9       29.83R
AINSWORTH      CLOUDY    78  65  63 S13G25    29.85S
BROKEN BOW     CLOUDY    76  65  68 SE10      29.90S
O`NEILL        CLOUDY    74  66  76 SE13      29.88S
ORD            CLOUDY    74  64  71 SE10      29.88S
THEDFORD       CLOUDY    78  66  66 S17G23    29.87F
$$

NEZ041-046>049-061>064-073>077-083>087-050600-
SOUTH CENTRAL NEBRASKA

CITY           SKY/WX    TMP DP  RH WIND       PRES   REMARKS
GRAND ISLAND   CLOUDY    73  63  70 SE13      29.92R
AURORA         CLOUDY    72  66  83 SE12      29.92S
HASTINGS       CLOUDY    74  62  66 S14       29.91F
HEBRON         MOCLDY    73  63  72 SE8       29.94R
HOLDREGE       MOCLDY    73  63  68 SE10      29.91S
KEARNEY *      CLOUDY    73  63  68 SE13      29.91S
YORK           MOCLDY    72  64  78 S8        29.93S
$$

NEZ011>018-030>034-042>045-050600-
NORTHEAST NEBRASKA

CITY           SKY/WX    TMP DP  RH WIND       PRES   REMARKS
NORFOLK        PTCLDY    71  64  78 SE8       29.91S
ALBION         CLOUDY    70  64  80 SE8       29.91F
BLAIR          CLEAR     71  61  70 S10       29.95S
COLUMBUS *     PTCLDY    72  61  68 SE6       29.90S
FREMONT        CLEAR     73  63  71 SE10      29.94S
TEKAMAH        CLEAR     69  63  81 SE7       29.94R
WAYNE          PTCLDY    69  65  87 S6        29.93R
$$

NEZ050>053-065>068-078-088>093-050600-
SOUTHEAST NEBRASKA

CITY           SKY/WX    TMP DP  RH WIND       PRES   REMARKS
LINCOLN        PTCLDY    73  65  75 S9        29.95R
OMAHA EPPLEY   CLEAR     72  62  71 S9        29.95S
BEATRICE       CLEAR     72  64  76 SE10      29.96R
FALLS CITY     CLEAR     67  63  87 SE7       29.97R
NEBRASKA CITY  CLEAR     67  61  80 S7        29.98R
PLATTSMOUTH    CLEAR     69  61  76 SE7       29.97S
$$

NEZ044-045-051>053-067-050600-
OMAHA AREA

CITY           SKY/WX    TMP DP  RH WIND       PRES   REMARKS
OMAHA EPPLEY   CLEAR     72  62  71 S9        29.95S
BLAIR          CLEAR     71  61  70 S10       29.95S
FREMONT        CLEAR     73  63  71 SE10      29.94S
MILLARD        CLEAR     70  64  79 SE5       29.95S
OFFUTT AFB     CLEAR     68  63  83 SE6       29.95S
PLATTSMOUTH    CLEAR     69  61  76 SE7       29.97S
WAHOO          FAIR      69  65  85 SE8       29.95R
$$



USA.gov is the U.S. government's official web portal to all federal, state and local government web resources and services.